Location: Archamps
(46.1365°N, 6.1329°E)
Time: 06:20:59
(UTC+00:00)

Cosmos 1844 Rocket - Pass Details

Date: 28 January 2023
Orbit: 826 x 843 km, 71.0° (Epoch: 21 March)

Event Time Altitude Azimuth Distance (km) Brightness Sun altitude
Rises 19:24:18 0° 333° (NNW) 3,377 6.2 -29.4°
Reaches altitude 10° 19:26:44 10° 333° (NNW) 2,438 5.4 -29.9°
Enters shadow 19:30:57 53° 328° (NNW) 1,011 3.2 -30.6°
